[[{"header":{"parameterUnit":"m.s-1","parameterCategory":1,"la1":30.2991,"la2":30.254,"lo1":-89.0895,"lo2":-89.0444,"dy":0.0017,"dx":0.0017,"nx":28,"ny":28,"refTime":"2025-04-02T03:00:00:Z","depth":0,"parameterNumber":2,"parameterNumberName":"U-component_of_WINDS"},"data":[0,0,0,0,0,0,0,0,0,0,0,0,0,0,0,0,0,0,0,0,0,0,0,0,0,0,0,0,0,0,0,0,0,0,0,0,0,0,0,0,0,0,0,0,0,0,0,0,0,0,0,0,0,0,0,0,0,0,-4.37,-4.3701,0,-4.3808,-4.381,-4.3811,-4.3829,-4.3828,-4.3827,-4.3826,-4.3936,-4.3939,-4.3943,0,0,0,0,0,0,0,0,0,0,0,0,0,-4.3507,-4.351,-4.37,-4.3701,-4.3702,-4.3808,-4.381,-4.3811,-4.3829,-4.3828,-4.3827,-4.3826,-4.3935,-4.3939,-4.3943,0,0,0,0,0,0,0,0,0,0,0,0,0,-4.3601,-4.3512,-4.3699,-4.3724,-4.3727,-4.3808,-4.381,-4.3812,-4.3829,-4.3828,-4.3827,-4.3825,-4.3933,-4.3939,-4.3944,-4.4007,0,0,-4.3961,-4.3964,0,0,0,0,0,0,0,0,-4.3595,-4.3608,-4.3719,-4.3723,-4.3726,-4.3804,-4.3782,-4.3877,-4.383,-4.3791,-4.3826,-4.3825,-4.3893,-4.3902,-4.3925,-4.4012,-4.4017,-4.3962,-4.3965,-4.3968,-4.3969,0,0,0,0,0,0,0,-4.3589,-4.3603,-4.3743,-4.3721,-4.3725,-4.373,-4.3741,-4.38,-4.3848,-4.3794,-4.3796,-4.3808,-4.3895,-4.392,-4.3928,-4.4018,-4.3962,-4.3967,-4.397,-4.3972,-4.4163,-4.4164,0,0,0,0,0,0,-4.3578,-4.3598,-4.3739,-4.3746,-4.3656,-4.3734,-4.3747,-4.378,-4.3848,-4.3857,-4.3809,-4.3809,-4.3911,-4.3921,-4.3932,-4.4009,-4.3968,-4.3973,-4.3976,-4.4161,-4.4163,-4.4165,0,0,0,0,0,0,-4.3574,-4.359,-4.3735,-4.3672,-4.3691,-4.3739,-4.3776,-4.3783,-4.3808,-4.3859,-4.3868,-4.3826,-4.391,-4.3924,-4.3988,-4.4013,-4.3976,-4.3981,-4.4159,-4.4162,-4.4164,-4.4165,0,0,0,0,0,0,-4.3568,-4.3589,-4.3613,-4.3673,-4.3694,-4.3789,-4.3777,-4.3786,-4.3818,-4.3818,-4.3877,-4.3886,-4.391,-4.398,-4.3994,-4.402,-4.3985,-4.4157,-4.416,-4.4163,-4.4163,-4.4167,-4.4171,0,0,0,0,0,-4.3561,-4.3608,-4.3614,-4.3631,-4.3726,-4.3791,-4.3803,-4.3831,-4.382,-4.3845,-4.3878,-4.3884,-4.4009,-4.3986,-4.4002,-4.4031,-4.4156,-4.4159,-4.4163,-4.4161,-4.4166,-4.4171,0,0,0,0,0,0,-4.3549,-4.3617,-4.3624,-4.3692,-4.3736,-4.3794,-4.3825,-4.3835,-4.3882,-4.3881,-4.3913,-4.3926,-4.3988,-4.4017,-4.399,-4.4096,-4.4081,-4.4089,-4.4074,-4.408,-4.4084,-4.4075,-4.399,0,0,0,0,0,-4.3555,-4.3603,-4.3659,-4.3713,-4.3735,-4.3777,-4.3806,-4.3824,-4.387,-4.3889,-4.3926,-4.3971,-4.402,-4.4052,-4.41,-4.4168,-4.4181,-4.4196,-4.42,-4.4203,-4.4208,-4.4246,-4.4253,-4.4177,-4.4177,-4.4177,0,0,-4.3566,-4.3609,-4.3637,-4.3712,-4.3748,-4.3797,-4.3792,-4.3843,-4.3879,-4.3896,-4.3959,-4.3989,-4.4041,-4.4107,-4.4138,-4.4132,-4.4232,-4.4208,-4.421,-4.4213,-4.425,-4.4257,-4.4264,-4.418,-4.4179,-4.4179,0,0,-4.3611,-4.3649,-4.3698,-4.3735,-4.379,-4.3818,-4.383,-4.3888,-4.3908,-4.3972,-4.3986,-4.403,-4.4114,-4.4151,-4.418,-4.4242,-4.4249,-4.4257,-4.4277,-4.4313,-4.4319,-4.4324,-4.4345,-4.4353,-4.4262,-4.4262,-4.4262,0,-4.3618,-4.3691,-4.3722,-4.3773,-4.3806,-4.3825,-4.3875,-4.391,-4.3977,-4.3999,-4.3993,-4.41,-4.4136,-4.4211,-4.4226,-4.425,-4.4264,-4.4249,-4.4316,-4.4322,-4.4327,-4.4347,-4.4355,-4.4263,-4.4263,-4.4263,-4.4263,0,-4.3697,-4.3748,-4.3781,-4.3847,-4.3884,-4.3934,-4.3973,-4.4006,-4.4022,-4.405,-4.4116,-4.4161,-4.4218,-4.4238,-4.4253,-4.4316,-4.431,-4.431,-4.4295,-4.4334,-4.4354,-4.4362,-4.4263,-4.4263,-4.4263,-4.4263,0,0,-4.3734,-4.3818,-4.383,-4.386,-4.3924,-4.3964,-4.4016,-4.4073,-4.4101,-4.4148,-4.4192,-4.4264,-4.4264,-4.4298,-4.4318,-4.435,-4.4395,-4.4345,-4.4347,-4.4352,-4.4466,-4.4465,-4.4473,-4.4401,-4.4403,-4.4404,-4.4461,0,-4.3786,-4.3878,-4.3909,-4.3986,-4.4033,-4.4054,-4.4099,-4.4143,-4.4171,-4.4216,-4.4248,-4.4298,-4.4295,-4.4315,-4.4348,-4.4382,-4.4418,-4.4379,-4.4441,-4.4443,-4.4425,-4.4484,-4.4483,-4.4534,-4.4469,-4.4471,-4.4472,0,-4.3857,-4.3906,-4.3988,-4.4046,-4.4068,-4.4107,-4.4163,-4.4206,-4.4256,-4.4275,-4.4314,-4.4331,-4.4386,-4.4371,-4.4447,-4.442,-4.4448,-4.4469,-4.4471,-4.4476,-4.4458,-4.4489,-4.4551,-4.4558,-4.4484,-4.4483,-4.4482,0,-4.3875,-4.3962,-4.4022,-4.4048,-4.4117,-4.4145,-4.4175,-4.4225,-4.4257,-4.4306,-4.4328,-4.4383,-4.4412,-4.4454,-4.4486,-4.4472,-4.4559,-4.4547,-4.4575,-4.4574,-4.459,-4.4588,-4.4656,-4.4612,-4.4612,-4.4611,-4.4611,0,-4.3928,-4.3977,-4.4031,-4.4068,-4.4123,-4.4158,-4.4213,-4.4244,-4.4288,-4.4331,-4.4353,-4.4393,-4.4434,-4.448,-4.4506,-4.4564,-4.4578,-4.4594,-4.46,-4.4591,-4.4589,-4.4608,-4.4604,-4.4613,-4.4613,-4.4613,-4.4612,0,-4.3956,-4.3994,-4.4061,-4.4122,-4.4139,-4.4177,-4.423,-4.4266,-4.4297,-4.4352,-4.4367,-4.4414,-4.4469,-4.4506,-4.4577,-4.4594,-4.4657,-4.4664,-4.464,-4.4643,-4.4669,-4.4665,-4.4749,-4.4762,-4.471,-4.4711,-4.4711,0,-4.3986,-4.4024,-4.409,-4.4121,-4.4152,-4.4201,-4.4235,-4.4272,-4.4306,-4.4368,-4.4397,-4.4454,-4.4501,-4.4588,-4.4629,-4.4683,-4.4689,-4.4716,-4.4697,-4.4687,-4.4688,-4.4685,-4.4688,-4.4717,-4.4718,-4.4718,-4.4718,0,-4.4035,-4.4053,-4.4101,-4.4157,-4.4197,-4.4243,-4.4288,-4.4312,-4.4357,-4.4395,-4.4452,-4.4488,-4.4561,-4.4617,-4.4675,-4.4706,-4.472,-4.4724,-4.4733,-4.4723,-4.4708,-4.4715,-4.4646,-4.4721,-4.4721,-4.4721,-4.4721,-4.472,-4.4064,-4.41,-4.4152,-4.4205,-4.4244,-4.4286,-4.4324,-4.436,-4.4408,-4.447,-4.4489,-4.4548,-4.4599,-4.4679,-4.4711,-4.4758,-4.4755,-4.4769,-4.4772,-4.4774,-4.4774,-4.4702,-4.4769,-4.4769,-4.4769,-4.4769,-4.4769,0,-4.4114,-4.4149,-4.4198,-4.4261,-4.4304,-4.4314,-4.4366,-4.44,-4.4452,-4.4498,-4.4545,-4.461,-4.4665,-4.4711,-4.4768,-4.4797,-4.4804,-4.481,-4.4807,-4.4814,-4.4773,-4.4759,-4.4803,-4.4803,-4.4803,-4.4803,-4.4803,-4.4803,-4.4144,-4.4204,-4.4228,-4.4307,-4.4342,-4.44,-4.4429,-4.4468,-4.4505,-4.4578,-4.4624,-4.4654,-4.47,-4.4761,-4.4812,-4.4824,-4.4843,-4.4848,-4.4861,-4.4821,-4.4817,-4.4813,-4.48,-4.4852,-4.4852,-4.4898,-4.4898,-4.4899]},{"header":{"parameterUnit":"m.s-1","parameterCategory":1,"la1":30.2991,"la2":30.254,"lo1":-89.0895,"lo2":-89.0444,"dy":0.0017,"dx":0.0017,"nx":28,"ny":28,"refTime":"2025-04-02T03:00:00:Z","depth":0,"parameterNumber":3,"parameterNumberName":"V-component_of_WINDS"},"data":[0,0,0,0,0,0,0,0,0,0,0,0,0,0,0,0,0,0,0,0,0,0,0,0,0,0,0,0,0,0,0,0,0,0,0,0,0,0,0,0,0,0,0,0,0,0,0,0,0,0,0,0,0,0,0,0,0,0,6.1486,6.1487,0,6.1558,6.1559,6.1559,6.1551,6.155,6.1549,6.1548,6.1616,6.1619,6.1622,0,0,0,0,0,0,0,0,0,0,0,0,0,6.1338,6.1341,6.1486,6.1487,6.1488,6.1558,6.1559,6.156,6.1551,6.155,6.1548,6.1547,6.1615,6.1618,6.1622,0,0,0,0,0,0,0,0,0,0,0,0,0,6.1405,6.1342,6.1486,6.1492,6.1493,6.1558,6.1559,6.156,6.1551,6.155,6.1548,6.1546,6.1614,6.1618,6.1622,6.1683,0,0,6.1636,6.1637,0,0,0,0,0,0,0,0,6.1401,6.1411,6.149,6.1492,6.1493,6.1544,6.1532,6.1601,6.1552,6.1529,6.1548,6.1546,6.1593,6.1599,6.1616,6.1686,6.1689,6.1636,6.1639,6.164,6.1642,0,0,0,0,0,0,0,6.1397,6.1407,6.1514,6.1491,6.1493,6.149,6.1498,6.1545,6.157,6.1531,6.1531,6.154,6.1593,6.1612,6.1617,6.169,6.1636,6.164,6.1642,6.1644,6.1817,6.1819,0,0,0,0,0,0,6.1391,6.1404,6.1512,6.1516,6.1442,6.1494,6.1503,6.1529,6.1569,6.1574,6.1541,6.1539,6.1605,6.1612,6.162,6.1696,6.164,6.1644,6.1647,6.1815,6.1818,6.182,0,0,0,0,0,0,6.1388,6.1401,6.1509,6.146,6.1474,6.1499,6.1528,6.1532,6.155,6.1577,6.1581,6.1555,6.1604,6.1614,6.1669,6.1698,6.1646,6.165,6.1813,6.1816,6.1819,6.1847,0,0,0,0,0,0,6.1384,6.14,6.1424,6.1461,6.1476,6.1558,6.153,6.1534,6.1558,6.1556,6.1591,6.1595,6.1604,6.1662,6.1673,6.1703,6.1654,6.181,6.1814,6.1818,6.1844,6.1851,6.1857,0,0,0,0,0,6.1379,6.1427,6.1425,6.1438,6.1507,6.1559,6.1568,6.1578,6.156,6.1585,6.1602,6.1594,6.1693,6.1668,6.168,6.1712,6.1809,6.1813,6.1818,6.1841,6.185,6.1857,0,0,0,0,0,0,6.139,6.1432,6.143,6.1492,6.1523,6.1558,6.1588,6.1586,6.1621,6.1617,6.1626,6.1634,6.169,6.1706,6.1677,6.1774,6.1748,6.1755,6.1762,6.177,6.1777,6.1772,6.1657,0,0,0,0,0,6.1401,6.1441,6.1475,6.1526,6.1542,6.1563,6.1586,6.1591,6.1622,6.1634,6.1656,6.1685,6.1723,6.1747,6.1783,6.1846,6.1854,6.1874,6.1881,6.1886,6.1892,6.1929,6.1939,6.1835,6.1835,6.1835,0,0,6.1421,6.1449,6.1474,6.153,6.1554,6.1595,6.1573,6.1617,6.1647,6.164,6.1695,6.1711,6.1744,6.1805,6.1832,6.1819,6.1923,6.1892,6.1896,6.1899,6.1934,6.1944,6.1953,6.1838,6.1837,6.1837,0,0,6.1481,6.1506,6.1553,6.1579,6.1616,6.163,6.1642,6.1678,6.169,6.1745,6.1741,6.1777,6.1841,6.1866,6.1887,6.1959,6.1954,6.197,6.2005,6.204,6.2048,6.2056,6.2083,6.2093,6.1976,6.1976,6.1976,0,6.1502,6.1565,6.1577,6.1623,6.1648,6.1646,6.1694,6.1717,6.1764,6.1781,6.1767,6.185,6.1872,6.1939,6.1957,6.1973,6.1987,6.1966,6.2047,6.2054,6.2061,6.2087,6.2097,6.1978,6.1978,6.1978,6.1977,0,6.159,6.1634,6.1667,6.1716,6.1744,6.1791,6.1809,6.1836,6.184,6.1855,6.1912,6.1939,6.1982,6.1998,6.2,6.2065,6.2057,6.2045,6.2019,6.2073,6.2098,6.2108,6.1981,6.198,6.198,6.1979,0,0,6.1657,6.1715,6.1727,6.175,6.1793,6.1827,6.1873,6.1917,6.1942,6.1974,6.2014,6.207,6.206,6.2084,6.2089,6.212,6.2178,6.2104,6.2105,6.2118,6.2254,6.2264,6.2275,6.2175,6.2176,6.2178,6.2252,0,6.1723,6.1808,6.1821,6.1895,6.1937,6.1936,6.1977,6.2008,6.2024,6.206,6.2077,6.2118,6.21,6.2115,6.2146,6.2164,6.2205,6.2159,6.2211,6.2213,6.2205,6.2288,6.2298,6.2367,6.2261,6.2263,6.2264,0,6.181,6.1849,6.1928,6.1968,6.1986,6.2022,6.2065,6.21,6.2135,6.2145,6.2173,6.2175,6.2223,6.2195,6.2262,6.2231,6.2253,6.2265,6.2268,6.2274,6.2243,6.2298,6.2388,6.2399,6.2279,6.2278,6.2277,0,6.1854,6.1925,6.1983,6.2002,6.205,6.2076,6.2097,6.213,6.2157,6.2193,6.2211,6.2252,6.2274,6.2306,6.2319,6.2297,6.2386,6.2358,6.2395,6.2395,6.2414,6.2413,6.2511,6.2426,6.2426,6.2426,6.2426,0,6.1926,6.1975,6.2004,6.2039,6.2094,6.2109,6.2163,6.2182,6.2212,6.2251,6.2252,6.2288,6.2303,6.2341,6.2352,6.2407,6.2416,6.2425,6.2428,6.2426,6.2425,6.2441,6.2437,6.2429,6.2428,6.2428,6.2427,0,6.1985,6.2006,6.2069,6.211,6.2122,6.2161,6.2195,6.2229,6.2246,6.2295,6.2308,6.2333,6.2379,6.2395,6.2449,6.2456,6.2521,6.2518,6.251,6.2511,6.2547,6.2544,6.266,6.2677,6.258,6.2581,6.2581,0,6.203,6.2069,6.2115,6.2142,6.2165,6.2208,6.2237,6.2252,6.2281,6.2326,6.2355,6.2401,6.2438,6.2511,6.2533,6.2576,6.2575,6.2613,6.2581,6.2579,6.2578,6.2576,6.2581,6.2619,6.262,6.2621,6.2621,0,6.2109,6.2119,6.216,6.2207,6.2241,6.2278,6.2313,6.2335,6.2356,6.2388,6.2437,6.2466,6.2524,6.2569,6.2613,6.2633,6.2631,6.2631,6.2642,6.2642,6.2636,6.2642,6.2528,6.2629,6.2628,6.2627,6.2627,6.2627,6.2164,6.2199,6.2238,6.2285,6.2314,6.2348,6.2383,6.2406,6.2447,6.2497,6.2503,6.2555,6.259,6.2649,6.2671,6.2712,6.2701,6.2716,6.2721,6.2725,6.2729,6.2629,6.2719,6.2719,6.2719,6.2719,6.2718,0,6.2245,6.2271,6.2314,6.2365,6.2403,6.24,6.2439,6.247,6.2517,6.2551,6.2589,6.2645,6.269,6.2717,6.2763,6.279,6.279,6.2801,6.28,6.2805,6.2734,6.2721,6.28,6.28,6.28,6.28,6.28,6.28,6.2291,6.2352,6.2366,6.2441,6.2466,6.2519,6.2542,6.2573,6.2601,6.2665,6.2703,6.2721,6.2753,6.2801,6.2842,6.2849,6.2866,6.2878,6.2884,6.2818,6.281,6.2802,6.2789,6.2882,6.2882,6.2952,6.2953,6.2953]}]]